Вернуться в каталог

SL-8 R/B

АктивенLEO
NORAD 7273·ROCKET BODY·🇷🇺 Russia

Запущен Apr 23, 1974 с Plesetsk Cosmodrome

Loading…

Ближайшие Пролёты (ближайшие 24 часа)

TLE

СвежийSource: Space-Track

Эпоха: Sep 14, 2026, 08:14 UTC

1 07273U 74024J   26257.34329287  .00000025  00000-0  33905-3 0  9996
2 07273  74.0274  26.0954 0076020 237.6726 149.5396 12.30502465353690

Отслеживайте SL-8 R/B в реальном времени с AllMySat

Download on the App Store